Regional Weather Roundup
Issued by NWS Upton, NY

Current Version | Previous Version | Graphics & Text | Print | Product List | Glossary Off
Versions: 1 2 3 4 5 6 7 8 9 10 11 12 13 14 15 16 17 18 19 20 21 22 23 24 25 26 27 28 29 30 31 32 33 34 35 36 37 38 39 40 41 42 43 44 45 46 47 48 49 50

524
ASUS41 KOKX 171505
RWROKX

Regional Weather Roundup
National Weather Service New York NY
1000 AM EST SAT FEB 17 2018

Note: "FAIR" indicates few or no clouds below 12,000 feet with no
significant weather and/or obstructions to visibility.

NYZ071-072-176-178-NJZ106-104-171600-
New York City Metro Area

CITY           SKY/WX    TMP DP  RH WIND       PRES   REMARKS
Central Park   FAIR      34  17  50 NE8       30.41F WCI  27
Bronx Bot Gard   N/A     34  18  51 SE2       30.41S
Bronx Lehman C   N/A     34  18  51 E7          N/A  WCI  28
LaGuardia Arpt PTSUNNY   34  17  50 NE12      30.40F WCI  25
Queens College   N/A     32  19  59 NE7         N/A  WCI  26
Kennedy Intl   PTSUNNY   35  19  52 E10       30.41F WCI  27
Breezy Point     N/A     32 N/A N/A NE10        N/A  WCI  24
Brooklyn Coll    N/A     34  18  51 NE6         N/A  WCI  29
Staten Island    N/A     32  18  55 NE7         N/A  WCI  26
Newark/Liberty PTSUNNY   34  17  50 NE9       30.40F WCI  27
Teterboro      FAIR      33  17  51 VRB5      30.40F WCI  29
$$

NYZ177-179-078>081-171600-
Long Island New York

CITY           SKY/WX    TMP DP  RH WIND       PRES   REMARKS
Jones Beach      N/A     32 N/A N/A NE10        N/A  WCI  24
Wantagh          N/A     36  19  51 NE7         N/A  WCI  30
Hempstead        N/A     36  21  55 N2        30.42F
Matinecock Pt    N/A     32 N/A N/A NE9         N/A  WCI  24
Farmingdale    FAIR      34  17  50 NE9       30.40F WCI  27
MacArthur/ISP  PTSUNNY   35  17  47 NE9       30.40F WCI  28
Shirley        FAIR      35  16  45 VRB7      30.41F WCI  29
Mt Sinai Harb    N/A    N/A N/A N/A NE5         N/A
Westhampton    FAIR      35  17  47 NE8       30.43F WCI  29
East Hampton   FAIR      33  12  41 NE3       30.41F
Southold         N/A     32  16  51 NE7         N/A  WCI  26
Montauk          N/A     34  13  41 VRB5      30.43S WCI  30
$$

NYZ052-065-067-171600-
Hudson Valley

CITY           SKY/WX    TMP DP  RH WIND       PRES   REMARKS
White Plains   FAIR      32  16  51 VRB5      30.38F WCI  27
Larchmont Harb   N/A    N/A N/A N/A NE8         N/A
Croton On Huds   N/A    N/A N/A N/A W6          N/A
Somers           N/A     32  19  59 E1          N/A
Brewster         N/A     32  18  55 E2          N/A
Newburgh       MOSUNNY   30  19  64 VRB5      30.40S WCI  25
Montgomery     FAIR      31  17  56 CALM      30.38F
Otisville        N/A     30  18  59 E5          N/A  WCI  25
Warwick          N/A     30  18  59 E2          N/A
Suffern          N/A     30  18  59 NE3         N/A
Poughkeepsie   FAIR      31  16  54 CALM      30.41S
Albany         PTSUNNY   29  13  51 VRB5      30.39S WCI  24
$$

NJZ001-105-106-008-010-013-015-019>022-104-171600-
New Jersey

CITY           SKY/WX    TMP DP  RH WIND       PRES   REMARKS
Newark/Liberty PTSUNNY   34  17  50 NE9       30.40F WCI  27
Teterboro      FAIR      33  17  51 VRB5      30.40F WCI  29
Caldwell       FAIR      32  17  54 NE8       30.40F WCI  25
Somerville     FAIR      33  17  51 VRB6      30.37F WCI  28
Linden         FAIR      34  16  47 NE9       30.40F WCI  27
Perth Amboy      N/A     32 N/A N/A NE7         N/A  WCI  26
Sussex         FAIR      29  17  61 E3        30.37F
Andover          N/A     29  16  58 N6        30.37F WCI  23
Trenton        FAIR      33  18  53 E8        30.39S WCI  26
Millville      FAIR      35  19  52 E9G21     30.40R WCI  28
Atlantic City    N/A     37  24  59 E6        30.40R WCI  32
Wrightstown    NOT AVBL
Toms River     FAIR      36  22  56 E10       30.41F WCI  28
Belmar         FAIR      34  20  56 NE10      30.41S WCI  26
$$

PAZ047>061-062-071-171600-
Eastern Pennsylvania

CITY           SKY/WX    TMP DP  RH WIND       PRES   REMARKS
Philadelphia   PTSUNNY   34  17  50 E7        30.42R WCI  28
Allentown      FAIR      31  16  54 NE8       30.37F WCI  23
Scranton       FAIR      28  16  60 SE3       30.32F
$$

CTZ002-004>006-009-010-012-RIZ004-006-007-MAZ004-011-015-171600-
Southern New England

 In CT

CITY           SKY/WX    TMP DP  RH WIND       PRES   REMARKS
Bradley Intl   FAIR      30  12  47 E3        30.41S
Hartford       FAIR      33  14  45 CALM      30.42F
Danbury        FAIR      32  17  54 VRB3      30.40F
Wtrbury/Oxford FAIR      29  17  61 VRB3      30.39R
Norwalk Harbor   N/A    N/A N/A N/A NE9         N/A
Bridgeport     FAIR      32  18  56 E6        30.42F WCI  26
Meriden        FAIR      31  12  45 VRB3      30.42S
New Haven      FAIR      33  13  43 NE5       30.41F WCI  29
Chester        FAIR      34   9  35 NE3       30.39F
Groton         FAIR      34   9  35 CALM      30.42S
Willimantic    FAIR      33  10  38 VRB5      30.41F WCI  29

 In RI

CITY           SKY/WX    TMP DP  RH WIND       PRES   REMARKS
Providence     FAIR      34  13  41 NE7       30.41F WCI  28
Block Island   FAIR      33  19  56 NE8       30.43S WCI  26
Westerly       FAIR      34  10  37 CALM      30.42S

In MA

CITY           SKY/WX    TMP DP  RH WIND       PRES   REMARKS
Boston         FAIR      32   4  30 N5        30.40F WCI  27
Worcester      FAIR      28   9  44 CALM      30.34S
Westfield      FAIR      30  12  47 VRB3      30.40S
Provincetown   FAIR      32  18  56 N9        30.42F WCI  24
Nantucket      FAIR      35  20  54 N12       30.41S WCI  27
$$

ANZ330-335-338-340-345-350-353-355-171600-
Coastal Marine Observations


STATION/POSITION TIME  SKY/WX   TEMP    WIND        PRES    VSBY  WAVE
                                AIR SEA DIR/SP/G                  HT/PER
                 (UTC)          (F)     (DEG/KT/KT) (MB)    (MI)  (FT/S)
NY Harb Entrance 1450            33 39   40/ 14/ 16 1028.8          2/11
20 S Fire Island 1450            34 42   50/ 14/ 19 1029.1          2/ 4
15 E Barnegat Li 1430               41                N/A           3/ 5
Hudson Canyon    1450            39 46   60/ 14/ 16 1028.2          5/ 6
Kings Point      1424            32 35   70/  7/ 11 1030.7
Execution Rocks  NOT AVBL
Western LI Sound NOT AVBL
Central LI Sound 1445            32      50/  6/  6   N/A           1
Robbins Reef     1436            32     360/  7/  9 1030.2
$$


>>>>>>>>>>>>>>>>>>>>>>>>>>>> KEY <<<<<<<<<<<<<<<<<<<<<<<<<<<
>                                                          <
>     SKY/WX - Sky Condition/Present Weather               <
>     TMP    - Temperature in Fahrenheit                   <
>     DP     - Dew Point in Fahrenheit                     <
>     RH     - Relative Humidity in Percent                <
>     WIND   - Direction (from) and Speed in MPH           <
>     PRES   - Mean Sea Level Pressure (inches of Hg)      <
>     WCI    - Wind Chill Index                            <
>     VSB    - Visibility in Miles                         <
>     HX     - Heat Index                                  <
>     TC     - Temperature in Celsius                      <
>     VRB    - Varibale Wind Direction                     <
>                                                          <
>>>>>>>>>>>>>>>>>>>>>>>>>>>> KEY <<<<<<<<<<<<<<<<<<<<<<<<<<<




USA.gov is the U.S. government's official web portal to all federal, state and local government web resources and services.